Regional Weather Roundup
Issued by NWS

Home | Current Version | Previous Version | Graphics & Text | Print | Product List | Glossary On
Versions: 1 2 3 4 5 6 7 8 9 10 11 12 13 14 15 16 17 18 19 20 21 22 23 24 25 26 27 28 29 30 31 32 33 34 35 36 37 38 39 40 41 42 43 44 45 46 47 48 49 50
220
ASUS43 KOAX 250910
RWRNE

WEATHER ROUNDUP FOR NEBRASKA
NATIONAL WEATHER SERVICE OMAHA NE
400 AM CDT TUE APR 25 2017

NOTES: SATELLITE DATA IS BEING USED TO AUGMENT CLOUD COVER ABOVE
       12000 FEET.
       "FAIR" INDICATES FEW OR NO CLOUDS BELOW 12,000 FEET WITH NO
       SIGNIFICANT WEATHER AND/OR OBSTRUCTIONS TO VISIBILITY.

  * THESE STATIONS DO NOT REPORT WEATHER SUCH AS RAIN...SNOW OR FOG.

NEZ001>004-019>022-054>056-251000-
NEBRASKA PANHANDLE

CITY           SKY/WX    TMP DP  RH WIND       PRES   REMARKS
SCOTTSBLUFF    CLOUDY    46  43  89 S5        29.53F
ALLIANCE       LGT RAIN  46  44  93 E7        29.54F
CHADRON        LGT RAIN  45  43  93 NE15      29.53F
KIMBALL        LGT RAIN  46  40  81 W5        29.55F
SIDNEY         LGT RAIN  43  41  93 N10       29.55F
$$

NEZ057>060-069>072-079>082-251000-
SOUTHWEST NEBRASKA

CITY           SKY/WX    TMP DP  RH WIND       PRES   REMARKS
NORTH PLATTE   HVY RAIN  48  46  93 SE24G37   29.41F FOG
IMPERIAL       CLOUDY    47  43  86 VRB7      29.49R
LEXINGTON      CLOUDY    47  41  82 E15       29.52F
MCCOOK         CLOUDY    47  45  93 NE18G25   29.46F
OGALLALA       HVY RAIN  47  46  93 CALM      29.54R
$$

NEZ005>010-023>029-035>040-094-251000-
NORTH CENTRAL NEBRASKA

CITY           SKY/WX    TMP DP  RH WIND       PRES   REMARKS
VALENTINE      CLOUDY    37  33  85 NE13      29.60F WCI  29
AINSWORTH      CLOUDY    39  38  94 NE9       29.59F WCI  33
BROKEN BOW     LGT RAIN  45  41  86 N12       29.51F
O`NEILL        CLOUDY    41  37  86 N9        29.59F
ORD            CLOUDY    46  39  76 N8        29.54F
THEDFORD       CLOUDY    43  40  87 NE12      29.54F
$$

NEZ041-046>049-061>064-073>077-083>087-251000-
SOUTH CENTRAL NEBRASKA

CITY           SKY/WX    TMP DP  RH WIND       PRES   REMARKS
GRAND ISLAND   CLOUDY    47  41  80 N10       29.55R
AURORA         CLOUDY    47  40  74 N14       29.54R
HASTINGS       CLOUDY    49  39  68 N21       29.52F
HEBRON         LGT RAIN  50  44  79 N6        29.51F
HOLDREGE       CLOUDY    47  40  74 N24G31    29.48F
KEARNEY *      CLOUDY    46  37  71 N17       29.53F
YORK           CLOUDY    48  41  76 N13       29.54R
$$

NEZ011>018-030>034-042>045-251000-
NORTHEAST NEBRASKA

CITY           SKY/WX    TMP DP  RH WIND       PRES   REMARKS
NORFOLK        CLOUDY    43  37  79 N16       29.55F
ALBION         CLOUDY    46  38  75 N9        29.55F
BLAIR          MOCLDY    52  43  72 N13G18    29.50F
FREMONT        MOCLDY    48  41  76 N6        29.52F
TEKAMAH        PTCLDY    50  42  74 N12       29.52F
WAYNE          CLOUDY    43  39  86 N13       29.56F
$$

NEZ050>053-065>068-078-088>093-251000-
SOUTHEAST NEBRASKA

CITY           SKY/WX    TMP DP  RH WIND       PRES   REMARKS
LINCOLN        MOCLDY    50  42  74 N8        29.51F
OMAHA EPPLEY   MOCLDY    53  42  66 N12       29.49F
BEATRICE       CLOUDY    53  44  73 N6        29.51R
FALLS CITY     CLOUDY    54  46  74 SE7       29.48F
NEBRASKA CITY  CLOUDY    54  42  65 CALM      29.48F
PLATTSMOUTH    CLOUDY    53  43  67 W6        29.48F
$$

NEZ044-045-051>053-067-251000-
OMAHA AREA

CITY           SKY/WX    TMP DP  RH WIND       PRES   REMARKS
OMAHA EPPLEY   MOCLDY    53  42  66 N12       29.49F
BLAIR          MOCLDY    52  43  72 N13G18    29.50F
FREMONT        MOCLDY    48  41  76 N6        29.52F
MILLARD        CLOUDY    55  45  69 N5        29.49F
OFFUTT AFB     PTCLDY    53  44  71 N5        29.47F
PLATTSMOUTH    CLOUDY    53  43  67 W6        29.48F
WAHOO          FAIR      47  41  78 N14       29.50F
$$




USA.gov is the U.S. government's official web portal to all federal, state and local government web resources and services.